Location: Byszew
(52.1813°N, 19.2693°E)
Time: 14:35:02
(UTC+00:00)

Meteor 1-25 Rocket - Pass Details

Date: 03 March 2021
Orbit: 835 x 893 km, 81.2° (Epoch: 13 April)

Event Time Altitude Azimuth Distance (km) Brightness Sun altitude
Rises 17:31:33 0° 194° (SSW) 3,470 7.5 -10.8°
Reaches altitude 10° 17:34:00 10° 195° (SSW) 2,528 6.8 -11.2°
Maximum altitude 17:39:46 82° 283° (WNW) 885 4.4 -12.0°
Drops below altitude 10° 17:45:29 10° 12° (NNE) 2,507 6.6 -12.9°
Sets 17:47:54 0° 13° (NNE) 3,439 7.3 -13.3°
